Tracking 19800 objects as of 23-Jul-2019
HD Live streaming from Space Station
objects crossing your sky now

LEMUR 1

Track LEMUR 1 now!
10-day predictions
LEMUR 1 is classified as:


NORAD ID: 40044
Int'l Code: 2014-033AL
Perigee: 613.7 km
Apogee: 696.5 km
Inclination: 97.8 °
Period: 97.7 minutes
Semi major axis: 7026 km
RCS: Unknown
Launch date: June 19, 2014
Source: United States (US)
Launch site: Orenburg, Russia (OREN)
aabbcc
Your satellite tracking list
Your tracking list is empty




NASA's NSSDC Master Catalog

Two Line Element Set (TLE):
1 40044U 14033AL  19203.56269593  .00000074  00000-0  18513-4 0  9996
2 40044  97.7529  69.4547 0058958 350.8127   9.1998 14.74108019273563
Source of the keplerian elements: AFSPC